Dewpoint
8 3 4 7 3 -0 10 5 4 5 6 6 5 5 4 0 1 -3 -3 -3 -1 -1 1 4 3 6 8 8 7 6 7 8 8 9 10 9 12 15 16 16 15 16 17 16 12 15 17 13 11 9 10 13 12 14 14 14 16 15 16 15 17 17 19 21 22 22 22 21 23 23 24 26 28 29 29 31 31 29 30 37 39 39 39 41 43
1 -5 -4 0 0 5 7 4 14 5 7 4 3 3 3 2 -0 -2 -3 -3 -3 -1 4 3 4 9 7 8 9 9 6 5 8 12 13 14 18 15 16 13 14 14 19 16 19 13 11 11 11 11 12 7 15 16 16 20 13 14 14 13 14 15 16 19 22 22 22 21 21 22 22 24 26 27 27 27 28 28 27 28 34 38 38 38 38
-4 -7 -3 -0 2 4 4 4 4 6 5 2 1 2 3 3 0 -0 -1 -2 -2 1 6 0 2 8 7 8 9 11 10 7 12 14 13 14 14 13 16 14 14 15 16 19 15 15 11 10 10 11 10 16 13 12 13 12 12 12 12 11 11 12 14 18 19 21 21 22 23 22 21 20 25 28 27 28 28 28 28 27 29 35 37 37 37
-3 -6 -5 -5 -4 1 4 5 4 5 5 1 -0 1 2 5 -1 -1 -1 -2 -1 1 5 -0 1 6 6 8 8 10 12 15 12 11 11 11 13 12 12 11 13 14 14 16 18 16 12 10 10 9 10 15 12 11 11 10 11 11 10 11 13 12 12 13 17 18 21 21 19 21 21 22 21 25 26 25 29 28 28 27 29 34 36 37 37
-5 -6 -2 -4 -3 1 2 4 1 0 1 -0 -0 1 -0 -0 -1 -1 -1 -1 -1 2 -1 -1 2 3 3 5 8 9 10 10 10 9 8 10 11 10 10 10 10 10 11 12 18 14 13 12 10 9 10 10 13 10 9 10 11 10 10 12 12 13 14 14 14 17 18 22 22 21 18 18 20 21 24 24 28 31 31 29 30 35 37 37 37
-4 -4 0 -1 -2 3 2 1 -1 -2 -3 -0 0 0 -1 -1 -1 -2 -1 -0 -1 -0 -0 0 1 -0 -0 1 3 6 6 6 6 7 7 7 7 8 9 9 10 9 9 10 10 13 11 11 10 9 8 11 13 10 10 11 10 10 12 14 14 13 14 15 15 15 17 19 23 24 22 20 23 24 23 22 24 26 29 33 33 34 37 36 36
-3 1 -1 -2 1 4 3 -0 -1 -1 -2 -0 -2 -2 -2 -1 -1 -1 -1 0 -1 -2 -1 2 -1 -1 -0 -0 0 4 4 3 2 5 6 6 7 5 6 7 9 8 8 9 9 10 10 10 11 12 11 9 15 11 10 9 9 10 15 13 10 14 12 12 13 14 15 17 20 21 25 27 25 24 21 23 22 24 25 26 28 30 34 34 36
-2 1 -2 0 5 4 3 2 -1 -1 0 -1 -3 -3 -3 -3 -0 -1 -1 -1 -2 -2 -1 1 0 -0 -0 -1 1 1 -1 -0 2 3 4 6 3 3 3 4 5 5 7 7 8 8 10 8 7 7 7 6 10 8 6 7 11 13 13 12 12 13 11 11 12 14 15 16 18 21 23 24 25 25 25 23 23 22 22 23 23 23 31 33 34
-2 -1 -4 2 4 5 4 0 -1 -0 0 -1 -4 -4 -2 -2 0 -0 -3 -2 -3 -3 -3 -2 0 -1 -1 -3 -3 -3 -2 -0 -0 1 -0 -0 -3 -2 -0 1 1 2 4 5 6 6 9 6 5 4 4 4 8 9 7 7 6 6 8 8 8 9 10 14 15 14 15 15 17 19 23 23 23 24 25 25 23 21 22 22 22 22 22 22 27
1 -2 -3 3 4 3 2 1 1 2 3 5 -2 -3 -3 -2 -1 -1 -3 -3 -2 -3 -3 -3 -2 -1 -3 -3 -4 -5 -4 -3 -3 -3 -3 -3 -4 -4 -3 -1 1 1 2 2 3 3 3 3 5 3 2 3 10 5 5 4 3 2 2 1 3 7 11 13 13 14 15 15 15 18 21 23 23 24 23 24 24 23 22 21 22 22 22 22 24
0 -0 -2 3 4 4 1 1 2 3 3 0 1 -3 -0 -2 -3 -4 -3 -2 -3 -4 -4 -4 -3 -3 -3 -4 -5 -5 -4 -3 -3 -4 -4 -4 -4 -3 -1 -1 1 1 1 1 1 2 2 5 2 2 4 5 5 1 0 -0 0 0 1 2 5 9 12 12 13 13 14 15 15 19 20 22 23 22 22 22 22 22 22 23 23 23 22 22 21
1 1 -2 1 4 2 1 2 1 2 2 -1 2 2 2 -2 -3 -4 -3 -2 -4 -3 -3 -3 -3 -3 -4 -4 -5 -5 -4 -4 -4 -4 -3 -2 -1 -1 -0 1 -1 0 -1 -1 -1 -0 2 0 3 1 4 3 1 2 2 1 1 1 1 3 6 10 11 14 12 12 12 14 15 17 20 22 23 23 23 23 23 22 22 22 23 22 22 22 23
1 -0 -2 2 3 2 0 2 1 2 1 1 2 2 0 -3 -4 -4 -4 -4 -4 -5 -4 -4 -3 -5 -4 -4 -4 -4 -3 -4 -3 -2 -1 -1 -1 -1 -1 -1 -1 -2 -2 -2 -1 -1 2 1 1 1 -0 -1 3 -0 0 2 0 -0 -0 2 6 8 12 13 13 12 12 13 14 15 18 21 21 21 23 23 23 23 23 22 22 23 23 23 22
-2 1 -1 4 4 2 2 2 1 1 -0 1 -2 -1 -3 -5 -5 -4 -5 -4 -5 -4 -5 -4 -5 -5 -5 -4 -4 -4 -4 -4 -3 -2 -2 -2 -0 -2 -2 -3 -3 -3 -2 -2 -1 1 2 1 -1 -4 -4 -3 -1 0 2 3 4 2 2 3 5 10 12 12 12 12 12 13 14 15 17 20 20 19 17 18 19 19 20 21 21 21 22 22 22
-0 0 1 3 3 1 4 4 1 2 2 -0 -2 -4 -4 -5 -5 -5 -6 -6 -5 -5 -5 -6 -6 -6 -6 -4 -4 -4 -4 -3 -2 -1 -2 -2 -3 -4 -3 -2 -3 -3 -1 -2 2 -2 -2 -3 -3 -3 -4 -4 -3 -1 -1 -1 -1 1 3 3 5 8 10 12 11 11 12 12 13 14 16 18 19 19 17 17 19 22 23 22 22 21 21 22 21
1 1 1 1 0 3 1 -1 0 0 0 -5 -5 -6 -7 -6 -5 -5 -6 -6 -6 -6 -6 -7 -7 -7 -5 -5 -5 -5 -0 -3 -3 -3 -4 -4 -4 -4 -4 -4 -3 -4 -4 -4 -5 -4 -3 -5 -4 -5 -5 -5 -5 -4 -3 -1 -1 -0 1 2 4 5 4 4 6 7 8 10 11 14 15 16 18 18 18 17 17 19 20 20 23 22 21 19 21
1 2 2 -0 0 0 1 -1 -1 -2 -6 -8 -7 -7 -7 -6 -7 -8 -7 -7 -7 -7 -7 -8 -7 -7 -7 -8 -7 -5 -4 -4 -5 -6 -6 -5 -3 -3 -4 -4 -4 -5 -5 -4 -5 -5 -3 -2 -3 -3 -4 -4 -5 -4 -4 -3 -3 -3 -2 -0 1 1 1 2 3 5 6 8 11 14 15 15 17 18 18 19 19 19 19 19 19 21 23 22 20
-2 0 1 0 2 1 -2 -2 -3 -5 -6 -8 -8 -7 -8 -6 -7 -8 -8 -10 -9 -8 -9 -8 -8 -8 -9 -8 -7 -6 -7 -7 -7 -6 -6 -5 -5 -5 -5 -5 -5 -5 -4 -3 -2 -3 -3 0 -2 -3 -2 -3 -3 -4 -4 -4 -4 -3 -3 -4 -4 -3 -0 1 2 3 3 4 8 10 15 15 17 18 18 17 18 17 15 16 18 19 19 20 22
-3 -3 -1 -2 2 -1 -3 -2 -5 -7 -7 -8 -7 -8 -10 -9 -7 -7 -9 -9 -9 -10 -9 -9 -9 -10 -9 -9 -9 -8 -8 -8 -6 -6 -5 -5 -5 -6 -5 -5 -4 -3 -1 -2 -2 -2 -2 -2 -2 -2 -2 -3 -3 -4 -4 -5 -5 -5 -6 -6 -7 -7 -6 -4 -2 -1 0 3 7 11 12 15 16 17 18 18 18 17 14 15 17 19 19 19 18
-9 -7 -6 -4 1 -1 -3 -5 -7 -8 -10 -9 -9 -11 -12 -11 -10 -9 -8 -10 -10 -11 -10 -9 -10 -10 -11 -10 -9 -9 -8 -7 -7 -7 -7 -6 -6 -5 -5 -4 -4 -1 -2 -2 -1 -1 0 -0 -0 -1 -1 -1 -3 -3 -3 -4 -4 -5 -6 -6 -7 -7 -7 -7 -7 -5 -3 1 6 10 12 14 16 17 17 17 17 16 15 15 17 19 20 20 21
-9 -7 -7 -4 -3 -5 -5 -6 -8 -9 -8 -8 -13 -13 -12 -10 -10 -11 -11 -11 -10 -9 -10 -11 -11 -12 -11 -11 -10 -9 -9 -8 -8 -8 -6 -6 -5 -1 -3 -4 -2 -2 -2 -2 -1 -0 -0 0 0 1 0 -0 -2 -3 -4 -4 -5 -5 -5 -6 -7 -7 -7 -7 -6 -6 -5 -3 3 6 8 9 14 17 17 16 15 13 13 15 16 18 20 21 20
-8 -5 -6 -6 -6 -6 -6 -5 -6 -7 -9 -11 -12 -13 -12 -12 -11 -11 -10 -9 -9 -9 -11 -11 -12 -12 -12 -11 -11 -10 -10 -9 -8 -7 -5 -5 -5 -5 -5 -2 -2 -2 -1 -1 -0 0 0 1 1 1 1 1 1 1 -1 -2 -2 -2 -3 -5 -5 -5 -5 -5 -4 -5 -4 0 1 4 6 10 12 14 16 16 14 14 12 12 14 16 18 18 20
-9 -5 -6 -6 -6 -6 -6 -4 -5 -6 -10 -10 -10 -11 -12 -11 -11 -9 -9 -10 -10 -10 -11 -11 -12 -12 -11 -11 -10 -10 -9 -8 -8 -7 -6 -5 -5 -4 -2 -1 -1 -0 -0 0 0 0 1 1 1 2 3 2 1 1 1 0 -0 -1 -1 -2 -3 -4 -4 -4 -3 -3 -1 2 4 5 6 7 7 9 11 13 15 14 14 14 15 16 17 18 19
-2 -6 -7 -7 -5 -5 -5 -5 -5 -8 -11 -10 -10 -11 -11 -11 -10 -10 -11 -11 -11 -11 -10 -11 -11 -11 -11 -11 -10 -9 -9 -9 -8 -7 -7 -6 -5 -4 -2 -1 -0 -0 0 0 1 1 1 2 2 2 2 2 3 3 3 4 2 1 -0 -1 -1 -2 -2 -2 -1 1 1 2 2 3 5 7 9 10 10 10 14 15 15 15 15 15 16 17 18
-10 -8 -7 -6 -5 -5 -5 -6 -6 -8 -9 -8 -8 -11 -11 -10 -10 -10 -11 -11 -11 -11 -11 -10 -11 -11 -11 -10 -10 -10 -10 -9 -9 -8 -7 -6 -4 -3 -2 -1 -0 -0 0 1 1 2 2 2 2 3 3 3 4 4 5 5 4 3 1 1 1 2 3 3 3 3 7 5 5 5 6 7 8 8 9 12 12 13 16 16 15 15 15 16 17
-12 -9 -7 -6 -5 -4 -6 -6 -6 -7 -7 -8 -11 -11 -11 -10 -11 -11 -12 -12 -11 -11 -11 -10 -10 -10 -10 -10 -10 -10 -10 -10 -9 -7 -6 -5 -3 -3 -2 -1 -0 -0 0 1 1 2 2 3 3 3 3 4 4 7 7 6 5 4 4 5 4 4 3 3 3 3 3 4 4 4 4 5 5 6 7 9 12 13 13 15 16 17 16 16 16
-12 -7 -7 -6 -6 -6 -6 -6 -6 -7 -7 -9 -10 -10 -10 -10 -11 -12 -12 -11 -11 -11 -11 -10 -10 -10 -11 -11 -11 -11 -10 -9 -8 -7 -5 -4 -4 -3 -2 -1 -0 -0 0 1 1 2 3 3 3 4 4 5 5 6 6 6 6 6 6 6 5 4 4 4 4 4 4 4 4 4 4 4 4 5 6 7 10 12 14 14 15 16 17 18 17
-9 -7 -5 -5 -6 -6 -6 -6 -6 -6 -7 -7 -8 -9 -11 -11 -11 -11 -12 -11 -11 -11 -10 -10 -10 -11 -11 -11 -11 -10 -8 -7 -6 -6 -5 -4 -2 -2 -2 -1 0 0 1 1 3 3 3 4 5 5 5 6 7 7 8 8 8 8 8 7 7 6 5 4 4 4 4 5 5 6 6 6 6 6 6 7 9 10 14 15 16 17 19 19 18
-10 -8 -5 -5 -6 -6 -6 -6 -5 -5 -7 -7 -8 -9 -10 -10 -11 -11 -11 -11 -10 -10 -10 -11 -11 -12 -11 -11 -10 -9 -8 -7 -6 -6 -4 -4 -3 -2 -1 -0 1 1 2 2 3 3 4 4 6 6 7 7 8 8 8 8 8 8 8 8 8 7 6 5 4 4 4 4 4 5 6 8 11 14 14 14 14 14 12 13 16 17 18 18 19
-9 -7 -5 -5 -6 -6 -6 -6 -6 -6 -6 -7 -9 -9 -10 -10 -11 -11 -11 -11 -10 -11 -12 -12 -13 -12 -12 -11 -10 -8 -7 -7 -6 -5 -4 -3 -2 -1 -1 -1 -0 0 1 2 2 3 4 5 5 7 7 8 9 9 12 16 17 13 11 9 9 8 7 6 6 6 5 5 5 5 6 10 10 13 14 15 16 16 16 15 15 16 17 18 17
-9 -5 -5 -5 -5 -6 -6 -6 -6 -6 -6 -7 -8 -9 -10 -10 -10 -10 -10 -10 -11 -12 -13 -13 -13 -12 -11 -10 -9 -8 -7 -6 -6 -5 -3 -3 -3 -2 -1 -1 -1 -0 0 1 2 3 4 5 6 7 8 9 10 11 17 19 20 20 17 14 11 9 9 8 7 6 6 6 6 6 6 9 9 10 10 14 15 16 16 16 17 18 20 18 17
-7 -5 -3 -5 -4 -5 -5 -5 -6 -6 -6 -8 -9 -9 -10 -10 -10 -10 -11 -11 -12 -13 -13 -12 -12 -11 -10 -9 -8 -8 -7 -5 -5 -4 -3 -3 -3 -2 -2 -2 -1 -1 -0 1 2 3 4 6 7 8 8 9 10 15 19 21 21 22 21 17 16 13 11 10 9 8 7 7 7 7 8 7 7 8 8 8 11 14 15 16 16 17 18 22 22
-6 -4 -2 -3 -4 -4 -5 -5 -6 -6 -7 -8 -9 -10 -10 -10 -10 -11 -12 -12 -13 -13 -12 -12 -12 -11 -10 -9 -8 -7 -6 -5 -5 -4 -4 -4 -3 -3 -3 -2 -2 -1 0 1 2 3 3 5 6 8 9 10 12 17 20 22 22 23 23 21 18 17 13 11 10 10 9 8 8 8 8 9 9 13 12 11 9 8 13 15 16 17 18 20 22
-4 -2 -2 -2 -3 -2 -4 -5 -6 -6 -6 -8 -8 -8 -9 -10 -11 -11 -12 -13 -13 -13 -11 -11 -10 -10 -9 -9 -7 -6 -6 -5 -5 -5 -5 -4 -4 -4 -3 -2 -1 -0 0 1 1 2 3 4 6 8 10 11 12 17 21 23 24 24 24 22 19 18 17 15 12 11 10 10 9 9 8 9 10 10 11 12 11 11 9 8 9 11 13 16 20
-3 -1 -1 -1 -1 -4 -4 -6 -6 -6 -7 -8 -8 -9 -11 -11 -11 -12 -12 -12 -12 -11 -10 -11 -10 -9 -9 -8 -7 -6 -6 -6 -6 -6 -5 -5 -5 -4 -3 -2 -2 -1 -0 0 1 2 3 5 7 9 10 11 12 20 22 24 25 25 25 23 21 19 18 17 15 13 13 12 11 11 10 10 10 11 11 12 11 11 11 10 8 7 7 8 11
-3 -4 -2 -2 -3 -4 -6 -7 -5 -5 -6 -8 -9 -10 -11 -10 -10 -12 -11 -11 -11 -11 -11 -10 -9 -9 -8 -8 -7 -7 -7 -7 -6 -6 -6 -5 -5 -4 -4 -3 -2 -1 0 1 2 3 4 5 7 9 10 12 13 21 23 25 26 25 26 24 22 21 19 19 18 16 15 14 14 13 12 12 12 12 15 18 17 13 11 11 9 8 7 7 8
-3 -4 -3 -3 -3 -5 -6 -6 -6 -6 -7 -8 -9 -10 -10 -10 -10 -11 -10 -10 -11 -10 -10 -10 -9 -9 -8 -8 -7 -8 -8 -7 -6 -6 -6 -6 -5 -5 -4 -2 -2 -1 0 1 2 3 5 6 7 9 11 12 13 18 23 25 25 26 25 23 23 22 20 19 19 18 17 16 16 15 15 14 14 14 17 19 20 20 14 11 10 9 8 7 6
-5 -5 -3 -4 -4 -6 -6 -6 -7 -6 -7 -9 -10 -10 -11 -10 -10 -10 -11 -11 -11 -10 -10 -9 -9 -9 -8 -8 -8 -7 -8 -7 -7 -7 -7 -6 -5 -4 -4 -2 -1 -1 0 2 3 4 5 7 8 10 12 13 15 19 22 23 23 24 24 22 21 22 21 20 20 20 19 19 19 21 20 17 16 16 20 21 22 20 17 15 12 11 9 8 7
-5 -3 -3 -4 -6 -6 -5 -5 -5 -6 -7 -10 -11 -11 -11 -10 -10 -10 -10 -11 -10 -10 -10 -9 -9 -9 -8 -8 -8 -7 -7 -7 -8 -7 -7 -6 -5 -4 -3 -1 -1 1 1 2 4 4 6 7 9 11 15 16 17 19 20 21 22 23 22 22 21 20 21 21 21 21 21 20 20 21 22 22 20 19 22 23 24 22 19 18 16 13 11 9 9
-3 -0 -1 -4 -4 -4 -3 -4 -5 -5 -8 -10 -10 -10 -10 -10 -10 -10 -10 -10 -10 -10 -9 -9 -9 -8 -8 -8 -7 -7 -8 -8 -8 -8 -7 -6 -4 -3 -2 -1 -0 1 1 2 3 5 6 8 9 12 14 15 17 17 18 19 21 21 21 20 20 20 20 20 20 21 21 21 21 21 22 24 24 25 25 25 25 25 21 19 18 15 12 11 12
-2 -2 2 -4 -4 -3 -3 -5 -4 -6 -9 -10 -9 -11 -10 -9 -10 -10 -10 -9 -9 -9 -9 -9 -9 -9 -9 -8 -8 -8 -9 -9 -8 -8 -6 -5 -4 -3 -2 -0 0 1 1 2 4 5 6 8 10 12 13 15 16 15 16 19 20 20 20 19 18 19 19 19 20 20 20 19 19 20 21 23 24 24 25 26 26 26 25 21 19 17 15 15 16
1 2 0 -4 -2 -4 -5 -5 -6 -7 -8 -9 -9 -9 -9 -9 -10 -10 -10 -9 -9 -9 -9 -9 -9 -9 -9 -9 -9 -9 -9 -9 -8 -7 -6 -5 -4 -2 -1 -0 0 1 1 3 4 5 6 8 10 11 13 13 14 15 14 16 18 19 19 19 17 18 19 19 19 19 19 20 20 19 19 20 21 22 23 24 26 26 26 24 21 23 23 22 18
-3 -1 0 -0 -3 -3 -3 -4 -4 -7 -8 -9 -9 -8 -8 -8 -9 -10 -9 -10 -9 -8 -9 -9 -9 -10 -10 -10 -10 -10 -10 -9 -8 -7 -6 -5 -3 -2 -1 -0 0 1 2 2 2 4 5 6 7 11 12 11 12 14 14 13 15 17 18 18 18 18 20 18 18 18 19 19 19 19 19 21 22 23 23 24 25 25 26 25 26 26 25 24 22
-2 -2 0 1 -1 -2 -3 -3 -5 -7 -8 -8 -7 -7 -7 -8 -9 -9 -10 -9 -9 -9 -9 -10 -10 -10 -11 -11 -11 -10 -10 -10 -9 -7 -6 -4 -3 -2 -1 -0 1 2 2 2 2 3 4 6 7 10 12 11 12 13 14 13 13 15 17 18 19 19 19 17 17 18 18 18 18 18 20 22 22 23 24 24 24 23 24 26 26 26 26 25 22
-2 -0 -0 0 1 -1 -3 -3 -6 -7 -8 -6 -6 -6 -7 -8 -8 -9 -9 -10 -10 -10 -10 -11 -11 -12 -12 -12 -12 -11 -11 -10 -9 -7 -5 -3 -4 -2 -1 -0 0 0 1 1 1 4 5 7 8 11 10 9 10 11 10 12 13 13 16 18 18 19 19 18 16 17 18 18 19 21 21 22 22 22 21 21 22 22 23 22 23 25 26 25 24
-0 -1 1 -0 -1 -0 -2 -3 -5 -7 -7 -5 -6 -5 -7 -7 -7 -8 -8 -9 -10 -12 -11 -12 -13 -13 -13 -13 -13 -13 -12 -10 -8 -6 -4 -3 -3 -2 -2 -1 -1 -1 0 1 3 5 6 8 10 10 8 7 8 8 9 9 12 13 15 17 18 18 17 18 17 16 18 19 19 20 20 20 21 22 22 22 21 21 22 23 23 24 25 25 25
-0 1 0 1 -1 -1 -1 -3 -4 -5 -5 -6 -5 -5 -5 -6 -6 -7 -8 -9 -11 -13 -12 -12 -14 -14 -14 -14 -14 -12 -9 -8 -8 -6 -4 -3 -2 -2 -2 -1 -1 -1 0 3 4 5 6 10 10 9 8 7 6 7 8 9 10 12 14 16 16 16 17 17 17 18 18 17 18 18 18 19 18 19 19 20 20 21 23 24 24 24 25 25 25
1 1 1 1 -1 -1 -1 -3 -3 -4 -5 -5 -5 -5 -5 -6 -6 -7 -7 -9 -11 -12 -12 -14 -15 -14 -14 -14 -13 -9 -8 -8 -7 -6 -5 -4 -3 -2 -2 -1 -0 1 3 4 5 7 10 10 9 9 8 8 7 8 9 10 11 13 15 15 15 16 15 16 17 17 16 16 15 17 15 14 14 14 15 15 15 16 18 19 22 24 24 24 25
4 2 1 -1 0 -1 -1 -2 -3 -3 -4 -5 -5 -5 -6 -6 -6 -7 -8 -10 -11 -11 -12 -14 -14 -14 -15 -12 -11 -11 -10 -9 -8 -6 -5 -3 -2 -1 1 3 4 6 6 7 9 10 10 10 10 9 9 8 8 8 9 13 13 15 14 14 15 15 16 17 16 16 14 11 11 11 10 10 10 11 11 11 12 13 14 16 16 18 22 24 24
4 3 2 1 -1 -1 -1 -2 -3 -4 -4 -5 -5 -6 -6 -6 -6 -7 -8 -10 -10 -11 -12 -13 -14 -15 -15 -14 -12 -12 -11 -9 -8 -7 -6 -4 0 5 4 3 4 8 10 11 11 9 9 9 9 10 10 8 8 10 14 15 15 16 16 16 16 17 17 15 15 13 10 6 7 7 7 7 7 8 8 9 10 10 11 12 13 16 16 16 20
3 3 2 1 1 0 -2 -2 -3 -4 -5 -5 -5 -6 -6 -6 -6 -7 -9 -10 -10 -12 -12 -13 -12 -13 -13 -12 -12 -12 -11 -10 -8 -7 -6 -4 -5 -2 4 7 8 8 9 10 10 10 11 11 9 8 9 11 12 13 14 14 15 15 16 15 16 17 15 15 14 10 6 5 4 5 5 4 5 6 6 6 8 8 10 10 11 12 12 14 15